www.pogodaiklimat.ru

Погода и климат >> Архив погоды >> Россия >> Краснодарский край >> Приморско-Ахтарск


АРХИВ ПОГОДЫ в Приморско-Ахтарске

Время (UTC), дата Ветер
(напр.,м/с)
 
Видим.   Явления Облачность Т
(С)
Тd
(С)
f
(%)
Тe
(С)
Тes
(С)
Комфортность P
(гПа)
Po
(гПа)
Тmin
(С)
Tmax
(С)
R
(мм)
R24
(мм)
S
(см)
06 13.02 З 2 10 км 10/8 600 м
[Sc Ci fib]
+6.1 +3.6 84 +4 +4 тепло 1020.0 1019.5 +4.5
09 13.02 СЗ 4 10 км 10/10 600 м
[Sc]
+5.1 +1.2 76 +1 +1 по сезону 1022.1 1021.6
12 13.02 СЗ 3 10 км 10/0
[Ac trans Ci fib]
+4.6 +0.7 76 +1 +3 по сезону 1022.7 1022.2
15 13.02 СЗ 3 10 км 10/0
[Ac trans Ci fib]
+3.7 +0.7 81 0 0 по сезону 1023.6 1023.1 +6.9
18 13.02 СЗ 2 10 км 10/0
[Ac trans Ci fib]
+3.4 +0.8 83 +1 +1 тепло 1025.3 1024.8
21 13.02 С 1 10 км 10/0
[Ac trans Ci fib]
+2.9 -0.4 79 +1 +1 тепло 1025.3 1024.8
00 14.02 С 4 10 км 10/0
[Ac As]
+2.1 -2.2 73 -3 -3 по сезону 1026.1 1025.5
03 14.02 С 2 10 км ясно -0.5 -3.8 78 -4 -4 по сезону 1026.4 1025.9 -0.5
06 14.02 СВ 2 10 км 4/0
[Ci fib]
-0.8 -5.0 73 -4 -3 по сезону 1027.2 1026.6 -1.3
09 14.02 СВ 3 10 км 5/0
[Ci fib]
+2.7 -5.6 54 -1 +4 по сезону 1026.7 1026.2
12 14.02 СВ 3 10 км 10/0
[Ci fib]
+4.2 -6.2 47 +1 +3 по сезону 1024.8 1024.3
15 14.02 СВ 2 10 км 10/0
[Ci fib]
+2.9 -5.3 55 0 0 по сезону 1024.6 1024.1 +4.5
18 14.02 СВ 4 10 км 10/0
[Ci fib]
+1.6 -6.4 55 -3 -3 по сезону 1025.3 1024.8
21 14.02 СВ 5
{10}
10 км 10/0
[Ci sp]
+0.2 -6.9 59 -5 -5 по сезону 1025.1 1024.6
00 15.02 В 4
{10}
10 км 10/0
[Ac und]
-0.6 -7.0 62 -6 -6 по сезону 1025.7 1025.2
03 15.02 СВ 5 10 км ясно -1.7 -7.3 66 -8 -8 по сезону 1025.9 1025.4 -1.7
06 15.02 СВ 5-10
{11}
10 км 10/4 600 м
[Sc Ac trans]
-1.4 -6.8 67 -7 -7 по сезону 1027.1 1026.6 -2.0
09 15.02 СВ 4
{11}
10 км 3/0
[Ac trans]
+0.9 -6.2 59 -4 -0 по сезону 1026.4 1025.9
12 15.02 СВ 5 10 км ясно +4.9 -5.7 46 +1 +3 по сезону 1025.1 1024.6
15 15.02 С 3 10 км 6/0
[Ci fib]
+2.8 -6.2 52 -1 -1 по сезону 1025.0 1024.4 +5.2
18 15.02 СВ 3 10 км ясно -0.5 -5.8 67 -5 -5 по сезону 1025.2 1024.7
21 15.02 СВ 2 10 км ясно -1.9 -5.8 75 -6 -6 по сезону 1024.6 1024.0
00 16.02 штиль 0 10 км ясно -2.9 -5.9 80 -4 -4 по сезону 1023.1 1022.6
03 16.02 СЗ 2 10 км ясно +0.5 -3.0 77 -3 -3 по сезону 1022.4 1021.9 -4.1
06 16.02 СЗ 3 10 км 10/10 600 м
[Sc]
+0.5 -2.4 81 -4 -4 по сезону 1023.0 1022.5
09 16.02 З 3 10 км 10/10 600 м
[Sc]
+2.1 -0.6 82 -2 -2 по сезону 1022.8 1022.3
12 16.02 З 3 10 км 10/10 600 м
[Sc]
+2.4 0.0 84 -2 -2 по сезону 1021.7 1021.2
15 16.02 З 3 4000 м дымка 10/10 600 м
[Sc]
+2.3 +0.4 87 -2 -2 по сезону 1021.6 1021.1 +2.5
18 16.02 З 2 10 км 10/10 600 м
[Sc]
+2.7 +0.4 85 -0 -0 по сезону 1021.7 1021.2
21 16.02 СЗ 2 4000 м дымка 10/10 600 м
[Sc]
+2.2 +0.7 90 -1 -1 по сезону 1022.1 1021.6
00 17.02 СЗ 1 4000 м слаб. морось 10/10 600 м
[Sc]
+1.6 +0.8 94 -0 -0 тепло 1021.5 1021.0
03 17.02 З 2 4000 м дымка 10/10 600 м
[Sc]
+2.0 +1.0 93 -1 -1 по сезону 1020.7 1020.2 +1.6 0.3
06 17.02 З 2 4000 м дымка 10/10 300 м
[St]
+2.5 +1.4 92 -1 -1 по сезону 1020.8 1020.3
09 17.02 З 3 4000 м дымка 10/10 600 м
[Sc]
+2.9 +1.3 89 -1 -1 по сезону 1020.0 1019.5
12 17.02 З 4-10
{11}
1000 м дымка 10/10 300 м
[Sc]
+4.7 +3.3 91 0 0 по сезону 1017.3 1016.8
15 17.02 ЮЗ 4-11
{11}
10 км 10/0
[Ci fib]
+5.9 +2.9 81 +2 +2 по сезону 1015.5 1015.0 +6.8 0.1
18 17.02 ЮЗ 4-12
{12}
4000 м дымка 10/10 600 м
[Sc]
+5.8 +4.0 88 +2 +2 тепло 1014.6 1014.1
21 17.02 З 4-10
{12}
10 км 5/0 600 м
[Ac trans Ci fib]
+5.0 +2.5 84 +1 +1 тепло 1014.1 1013.6
00 18.02 З 3
{10}
4000 м дымка 10/0
[Ac trans Ci fib]
+3.6 +1.7 87 -0 -0 тепло 1013.7 1013.2
03 18.02 З 3 10 км 10/0
[Ac trans]
+3.8 +1.4 84 0 0 тепло 1013.6 1013.1 +3.5
06 18.02 СЗ 4 10 км 10/0
[Ci fib]
+3.2 +0.4 82 -1 -0 по сезону 1015.8 1015.3 +2.8
09 18.02 СЗ 3 10 км 10/0
[Ci fib]
+3.9 -0.3 74 0 +5 по сезону 1016.7 1016.2
12 18.02 СЗ 3 10 км 10/0
[Ci fib]
+4.5 -0.6 69 +1 +4 по сезону 1017.1 1016.6
15 18.02 СЗ 3 10 км 10/0
[Ac lent Ci fib]
+3.2 -1.3 72 -1 -1 по сезону 1017.9 1017.4 +4.8
18 18.02 С 4 10 км ясно +2.5 -4.3 61 -2 -2 по сезону 1020.3 1019.8
21 18.02 С 4 10 км ясно +1.0 -5.1 64 -4 -4 по сезону 1022.2 1021.7
00 19.02 СВ 2 10 км ясно -0.9 -5.9 69 -4 -4 по сезону 1023.4 1022.9
03 19.02 СВ 2 10 км ясно -2.2 -6.9 70 -6 -6 по сезону 1024.7 1024.2 -2.2
06 19.02 СВ 2 10 км ясно -1.2 -6.5 67 -5 -3 по сезону 1027.0 1026.4 -3.2
09 19.02 С 3 10 км ясно +1.1 -8.2 50 -3 +3 по сезону 1028.0 1027.5
12 19.02 СЗ 2 10 км ясно +2.2 -6.7 52 -0 +3 по сезону 1027.6 1027.1
15 19.02 СЗ 1 10 км ясно +1.2 -6.5 56 0 0 по сезону 1027.4 1026.9 +2.5
18 19.02 СВ 1 10 км ясно -1.7 -6.0 72 -4 -4 по сезону 1027.1 1026.6
21 19.02 В 1 10 км ясно -2.3 -8.0 65 -4 -4 по сезону 1026.1 1025.6
00 20.02 ЮВ 2 10 км ясно -2.4 -8.3 64 -6 -6 по сезону 1024.4 1023.9
03 20.02 ЮВ 2 10 км ясно -2.9 -8.6 65 -7 -7 по сезону 1023.1 1022.6 -3.0

 

Местоположение метеостанции Приморско-Ахтарск (Краснодарский край, Россия): широта 46.03 долгота 38.15 высота над уровнем моря 4 м.

В архиве по умолчанию представлена погода в Приморско-Ахтарске за последнюю неделю. Архивные данные за месяц целиком и за предыдущие месяцы, начиная с января 2011 года, Вы можете получить, выбрав интересующий диапазон дат из раскрывающегося списка и нажав кнопку "Ввод!".


*Определитесь, кто Вы:
робот инопланетянин человек

Внимание! Время в таблицах - всемирное. Для получения местного времени необходимо прибавить поправку, которая равна 3 ч.

Смотрите также архив погоды в соседних городах и на ближайших метеорологических станциях:

Погода в Каневской (Краснодарский край, Россия) (63 км)
Погода в Тимашевске (Краснодарский край, Россия) (75 км)
Погода в Должанке (Краснодарский край, Россия) (79 км)
Погода в Славянске-на-Кубани (Краснодарский край, Россия) (83 км)
Погода в Ейске (Краснодарский край, Россия) (86 км)
Погода в Староминская (Краснодарский край, Россия) (87 км)
Погода в Темрюке (Краснодарский край, Россия) (99 км)
Погода в Маргаритово (Ростовская область, Россия) (114 км)
Погода в Кореновске (Краснодарский край, Россия) (121 км)
Погода в Мариуполе (Донецкая область, Украина) (122 км)

Пояснения к столбцам:

Ветер - указаны скорость ветра в м/с - средняя за 10 мин, порывы в срок и между сроками (в фигурных скобках) и направление, откуда дует ветер: С - северный, СВ - северо-восточный, В - восточный, ЮВ - юго-восточный, Ю - южный, ЮЗ - юго-западный, З - западный, СЗ - северо-западный.
Видимость - горизонтальная дальность видимости в метрах или километрах. При видимости от 1 до 10 км при отсутствии осадков обычно наблюдается дымка, при ухудшении видимости до 1 км и менее - туман. В сухую погоду видимость может ухудшаться дымом, пылью или мглою.
Явления - указаны атмосферные явления, наблюдавшиеся в срок или в последний час перед сроком; фигурными скобками обозначены явления, наблюдавшиеся между сроками (за 1-3 часа до срока); квадратными скобками обозначены град или гололедные отложения с указанием их диаметра в мм.
Облачность - указаны через наклонную черту общая и нижняя облачность в баллах и высота нижней границы облаков в метрах; квадратными скобками обозначены формы облаков: Ci - перистые, Cs - перисто-слоистые, Cc - перисто-кучевые, Ac - высококучевые, As - высокослоистые, Sc - слоисто-кучевые, Ns - слоисто-дождевые, Cu - кучевые, Cb - кучево-дождевые. Подробнее классификацию облаков см. в Атласе облаков (PDF).
T - Температура воздуха - температура, измеренная на высоте 2 м над землей.
Td - Температура точки росы - температура, при понижении до которой содержащийся в воздухе водяной пар достигнет насыщения.
f - Относительная влажность воздуха - влажноcть воздуха, измеренная на высоте 2 м над землей.
Te - Эффективная температура - температура, которую ощущает одетый по сезону человек в тени. Характеристика душности погоды. При расчете учитывается влияние влажности воздуха и скорости ветра на теплоощущения человека.
Tes - Эффективная температура на солнце - температура, которую ощущает человек, с поправкой на солнечный нагрев. Характеристика знойности погоды. Зависит от высоты солнца над горизонтом, облачности и скорости ветра. Ночью, в пасмурную погоду, а также при ветре 12 м/с и более поправка равна нулю.
P - Атмосферное давление - приведенное к уровню моря атмосферное давление.
Po - Атмосферное давление - измеренное на уровне метеостанции атмосферное давление.
Tmin - Минимальная температура - минимум температуры воздуха на высоте 2 м над землей.
Tmax - Максимальная температура - максимум температуры воздуха на высоте 2 м над землей.
R - Количество осадков - Количество выпавших осадков за период времени, мм. При наведении курсора мыши на число - период времени, за который выпало указанное количество осадков.
R24 - Количество осадков - Количество выпавших осадков за 24 часа, мм.
S - Снежный покров - Высота снежного покрова, см. При наведении курсора мыши на число - состояние снежного покрова и степень покрытия местности в баллах.